sat.trackr.live / text

‹ back to catalog

STARLINK-30460

NORAD 57870 · 2023-144G

PAYLOAD ACTIVE UNKNOWN

§ Identity

Operator
Country
US
Launch date
2023-09-16
Launch site
AFETR
Launch vehicle
Mass (kg)
RCS (m²)

Purposes: comms

External: N2YO · Heavens-Above · Gunter

§ Orbital elements

Epoch: 2026-05-24T21:47:49.501248Z

Period
94.27 min
Inclination
43.0029°
Eccentricity
0.0001397
Mean motion
15.27576823 rev/d
Perigee alt
482.1 km
Apogee alt
484.0 km
Semi-major
6,861.2 km
B*
1.7831e-5
RAAN
214.7983°
Arg perigee
277.1065°
Mean anomaly
82.9628°
Rev number
14,930

§ Raw data

STARLINK-304601 57870U 23144G   26144.90821182  .00000228  00000+0  17831-4 0  99942 57870  43.0029 214.7983 0001397 277.1065  82.9628 15.27576823149307

JSON: /api/v1/satellites/57870 · /tle

For live sub-satellite position, see the globe view (requires WebGL).

§ Visibility from observer

Set your observer location to see the next 7 days of passes ≥ 10°. The values pass through the URL so the page stays shareable.

No JS? Fill the form by hand. The geolocation button needs JavaScript.